| time (UTC) | temp F | wind direction | speed knots | gust knots | rain 1hr in | rain 24hr in | rain mn in | humidity % | barometer mb |
| 20260901190502 | 78 | 203 | 3.5 | 10.4 | 0.00 | 0.00 | 0.00 | 13 | 1018.3 |
| 20260901190003 | 77 | 160 | 6.1 | 11.3 | 0.00 | 0.00 | 0.00 | 10 | 1018.1 |
| 20260901185502 | 77 | 189 | 7.0 | 10.4 | 0.00 | 0.00 | 0.00 | 11 | 1018.2 |
| 20260901185002 | 78 | 204 | 6.1 | 11.3 | 0.00 | 0.00 | 0.00 | 19 | 1018.4 |
| 20260901184503 | 78 | 167 | 6.1 | 16.5 | 0.00 | 0.00 | 0.00 | 9 | 1018.2 |
| 20260901183502 | 78 | 192 | 9.6 | 15.6 | 0.00 | 0.00 | 0.00 | 11 | 1018.1 |
| 20260901183002 | 78 | 183 | 7.8 | 16.5 | 0.00 | 0.00 | 0.00 | 10 | 1018.1 |
| 20260901182502 | 77 | 195 | 6.1 | 16.5 | 0.00 | 0.00 | 0.00 | 11 | 1017.9 |
| 20260901182003 | 77 | 165 | 7.8 | 8.7 | 0.00 | 0.00 | 0.00 | 11 | 1018.1 |
| 20260901181002 | 77 | 177 | 8.7 | 16.5 | 0.00 | 0.00 | 0.00 | 11 | 1018.0 |
| 20260901180502 | 77 | 177 | 8.7 | 11.3 | 0.00 | 0.00 | 0.00 | 11 | 1017.9 |
| 20260901180002 | 76 | 173 | 7.8 | 15.6 | 0.00 | 0.00 | 0.00 | 11 | 1017.8 |
| 20260901175502 | 76 | 176 | 7.8 | 13.0 | 0.00 | 0.00 | 0.00 | 11 | 1017.8 |
| 20260901175003 | 76 | 152 | 7.8 | 14.8 | 0.00 | 0.00 | 0.00 | 11 | 1017.8 |
| 20260901174503 | 76 | 162 | 6.1 | 18.2 | 0.00 | 0.00 | 0.00 | 12 | 1017.9 |
| 20260901174002 | 76 | 168 | 6.1 | 11.3 | 0.00 | 0.00 | 0.00 | 12 | 1017.7 |
| 20260901173502 | 75 | 167 | 7.0 | 10.4 | 0.00 | 0.00 | 0.00 | 13 | 1017.8 |
| 20260901173003 | 74 | 163 | 5.2 | 13.9 | 0.00 | 0.00 | 0.00 | 14 | 1017.8 |
| 20260901172503 | 72 | 148 | 3.5 | 12.2 | 0.00 | 0.00 | 0.00 | 16 | 1017.7 |
| 20260901172002 | 70 | 53 | 3.5 | 7.8 | 0.00 | 0.00 | 0.00 | 23 | 1017.8 |
| 20260901171502 | 68 | 222 | 4.3 | 11.3 | 0.00 | 0.00 | 0.00 | 21 | 1017.7 |
| 20260901171002 | 68 | 268 | 3.5 | 7.8 | 0.00 | 0.00 | 0.00 | 27 | 1017.8 |
| 20260901170502 | 67 | 256 | 4.3 | 7.8 | 0.00 | 0.00 | 0.00 | 26 | 1017.8 |
| 20260901170003 | 67 | 251 | 3.5 | 11.3 | 0.00 | 0.00 | 0.00 | 28 | 1018.0 |
| 20260901165502 | 66 | 252 | 4.3 | 9.6 | 0.00 | 0.00 | 0.00 | 28 | 1018.0 |
| 20260901165002 | 66 | 252 | 3.5 | 10.4 | 0.00 | 0.00 | 0.00 | 28 | 1018.0 |
| 20260901164502 | 66 | 252 | 3.5 | 7.8 | 0.00 | 0.00 | 0.00 | 28 | 1017.9 |
| 20260901163502 | 65 | 244 | 3.5 | 9.6 | 0.00 | 0.00 | 0.00 | 31 | 1018.0 |
| 20260901163003 | 65 | 244 | 2.6 | 8.7 | 0.00 | 0.00 | 0.00 | 31 | 1017.9 |
| 20260901162502 | 64 | 257 | 3.5 | 6.1 | 0.00 | 0.00 | 0.00 | 32 | 1017.9 |
| 20260901162002 | 64 | 247 | 3.5 | 7.0 | 0.00 | 0.00 | 0.00 | 32 | 1018.0 |
| 20260901161502 | 64 | 253 | 2.6 | 6.1 | 0.00 | 0.00 | 0.00 | 33 | 1018.0 |
| 20260901161003 | 63 | 246 | 1.7 | 7.0 | 0.00 | 0.00 | 0.00 | 33 | 1018.0 |
| 20260901160502 | 63 | 250 | 1.7 | 4.3 | 0.00 | 0.00 | 0.00 | 34 | 1018.1 |
| 20260901155503 | 62 | 265 | 0.9 | 3.5 | 0.00 | 0.00 | 0.00 | 36 | 1018.1 |
| 20260901154003 | 59 | 269 | 0.0 | 0.9 | 0.00 | 0.00 | 0.00 | 37 | 1018.2 |
| 20260901153502 | 58 | 260 | 0.0 | 1.7 | 0.00 | 0.00 | 0.00 | 39 | 1018.3 |
| 20260901153002 | 57 | 250 | 0.9 | 2.6 | 0.00 | 0.00 | 0.00 | 41 | 1018.3 |
| 20260901152502 | 56 | 242 | 0.9 | 1.7 | 0.00 | 0.00 | 0.00 | 44 | 1018.3 |
| 20260901152003 | 54 | 272 | 0.0 | 1.7 | 0.00 | 0.00 | 0.00 | 45 | 1018.3 |
| 20260901151002 | 52 | 1 | 0.0 | 2.6 | 0.00 | 0.00 | 0.00 | 49 | 1017.9 |
| 20260901150503 | 52 | 54 | 0.0 | 0.9 | 0.00 | 0.00 | 0.00 | 50 | 1018.0 |
| 20260901145002 | 50 | 0 | 0.0 | 0.0 | 0.00 | 0.00 | 0.00 | 51 | 1017.9 |
| 20260901144503 | 49 | 0 | 0.0 | 0.0 | 0.00 | 0.00 | 0.00 | 51 | 1017.8 |
| 20260901144002 | 49 | 60 | 0.0 | 1.7 | 0.00 | 0.00 | 0.00 | 52 | 1017.8 |
| 20260901143003 | 48 | 0 | 0.0 | 0.0 | 0.00 | 0.00 | 0.00 | 51 | 1017.8 |
| 20260901142502 | 48 | 0 | 0.0 | 0.0 | 0.00 | 0.00 | 0.00 | 51 | 1017.7 |
| 20260901142002 | 48 | 0 | 0.0 | 0.0 | 0.00 | 0.00 | 0.00 | 50 | 1017.8 |
| 20260901141002 | 48 | 32 | 0.9 | 1.7 | 0.00 | 0.00 | 0.00 | 49 | 1017.6 |
| 20260901140502 | 48 | 0 | 0.0 | 0.0 | 0.00 | 0.00 | 0.00 | 49 | 1017.4 |
| 20260901135502 | 48 | 31 | 0.0 | 1.7 | 0.00 | 0.00 | 0.00 | 50 | 1017.7 |
| 20260901135002 | 48 | 0 | 0.0 | 0.0 | 0.00 | 0.00 | 0.00 | 49 | 1017.6 |
| 20260901134503 | 48 | 67 | 0.0 | 0.9 | 0.00 | 0.00 | 0.00 | 50 | 1017.5 |
| 20260901134003 | 48 | 77 | 0.0 | 0.9 | 0.00 | 0.00 | 0.00 | 50 | 1017.3 |
| 20260901133003 | 48 | 76 | 0.9 | 0.9 | 0.00 | 0.00 | 0.00 | 49 | 1017.3 |
| 20260901132502 | 48 | 80 | 0.9 | 1.7 | 0.00 | 0.00 | 0.00 | 49 | 1017.3 |
| 20260901131503 | 48 | 69 | 0.0 | 0.9 | 0.00 | 0.00 | 0.00 | 52 | 1017.2 |
| 20260901131002 | 48 | 0 | 0.0 | 0.0 | 0.00 | 0.00 | 0.00 | 52 | 1017.2 |
| 20260901130503 | 48 | 0 | 0.0 | 0.0 | 0.00 | 0.00 | 0.00 | 52 | 1017.2 |
| 20260901130003 | 48 | 0 | 0.0 | 0.0 | 0.00 | 0.00 | 0.00 | 52 | 1017.2 |
| 20260901125502 | 48 | 0 | 0.0 | 0.0 | 0.00 | 0.00 | 0.00 | 51 | 1017.3 |
| 20260901125003 | 48 | 0 | 0.0 | 0.0 | 0.00 | 0.00 | 0.00 | 51 | 1017.3 |
| 20260901124503 | 49 | 0 | 0.0 | 0.0 | 0.00 | 0.00 | 0.00 | 52 | 1017.3 |
| 20260901124003 | 49 | 67 | 0.0 | 0.9 | 0.00 | 0.00 | 0.00 | 52 | 1017.4 |
| 20260901123502 | 49 | 0 | 0.0 | 0.0 | 0.00 | 0.00 | 0.00 | 52 | 1017.4 |
| 20260901123002 | 49 | 0 | 0.0 | 0.0 | 0.00 | 0.00 | 0.00 | 51 | 1017.4 |
| 20260901122003 | 49 | 30 | 0.0 | 0.9 | 0.00 | 0.00 | 0.00 | 52 | 1017.3 |
| 20260901121502 | 49 | 33 | 0.0 | 1.7 | 0.00 | 0.00 | 0.00 | 52 | 1017.3 |
| 20260901121002 | 49 | 0 | 0.0 | 0.0 | 0.00 | 0.00 | 0.00 | 52 | 1017.4 |
| 20260901120503 | 49 | 34 | 0.0 | 0.9 | 0.00 | 0.00 | 0.00 | 52 | 1017.3 |
| 20260901120003 | 49 | 18 | 0.0 | 0.9 | 0.00 | 0.00 | 0.00 | 52 | 1017.2 |
| 20260901115503 | 50 | 0 | 0.0 | 0.0 | 0.00 | 0.00 | 0.00 | 52 | 1017.2 |
| 20260901115002 | 50 | 28 | 0.0 | 0.9 | 0.00 | 0.00 | 0.00 | 52 | 1017.3 |
| 20260901114502 | 50 | 0 | 0.0 | 0.0 | 0.00 | 0.00 | 0.00 | 52 | 1017.2 |
| 20260901114003 | 50 | 55 | 0.0 | 0.9 | 0.00 | 0.00 | 0.00 | 52 | 1017.2 |
| 20260901113502 | 50 | 102 | 0.0 | 0.9 | 0.00 | 0.00 | 0.00 | 52 | 1017.1 |
| 20260901113003 | 51 | 71 | 0.0 | 1.7 | 0.00 | 0.00 | 0.00 | 51 | 1017.2 |
| 20260901112002 | 51 | 0 | 0.0 | 0.0 | 0.00 | 0.00 | 0.00 | 52 | 1017.0 |
| 20260901111003 | 52 | 37 | 0.0 | 0.9 | 0.00 | 0.00 | 0.00 | 51 | 1017.1 |
| 20260901110503 | 52 | 34 | 0.0 | 0.9 | 0.00 | 0.00 | 0.00 | 51 | 1017.1 |
| 20260901110003 | 52 | 33 | 0.0 | 0.9 | 0.00 | 0.00 | 0.00 | 51 | 1017.1 |
| 20260901105503 | 52 | 0 | 0.0 | 0.0 | 0.00 | 0.00 | 0.00 | 52 | 1017.1 |
| 20260901105002 | 52 | 33 | 0.0 | 0.9 | 0.00 | 0.00 | 0.00 | 52 | 1017.0 |
| 20260901104002 | 52 | 0 | 0.0 | 0.0 | 0.00 | 0.00 | 0.00 | 52 | 1017.1 |
| 20260901103503 | 52 | 0 | 0.0 | 0.0 | 0.00 | 0.00 | 0.00 | 52 | 1017.1 |
| 20260901103003 | 52 | 0 | 0.0 | 0.0 | 0.00 | 0.00 | 0.00 | 52 | 1017.0 |
| 20260901102502 | 52 | 0 | 0.0 | 0.0 | 0.00 | 0.00 | 0.00 | 52 | 1017.0 |
| 20260901102002 | 52 | 0 | 0.0 | 0.0 | 0.00 | 0.00 | 0.00 | 52 | 1017.0 |
| 20260901101003 | 53 | 0 | 0.0 | 0.0 | 0.00 | 0.00 | 0.00 | 52 | 1017.1 |
| 20260901100503 | 53 | 0 | 0.0 | 0.0 | 0.00 | 0.00 | 0.00 | 52 | 1017.2 |
| 20260901100003 | 53 | 83 | 0.0 | 0.9 | 0.00 | 0.00 | 0.00 | 52 | 1017.1 |
| 20260901095502 | 53 | 0 | 0.0 | 0.0 | 0.00 | 0.00 | 0.00 | 52 | 1017.2 |
| 20260901095002 | 53 | 0 | 0.0 | 0.0 | 0.00 | 0.00 | 0.00 | 51 | 1017.2 |
| 20260901094503 | 53 | 0 | 0.0 | 0.0 | 0.00 | 0.00 | 0.00 | 51 | 1017.1 |
| 20260901094002 | 54 | 99 | 0.0 | 0.9 | 0.00 | 0.00 | 0.00 | 51 | 1017.2 |
| 20260901093503 | 54 | 98 | 0.0 | 0.9 | 0.00 | 0.00 | 0.00 | 50 | 1017.1 |
| 20260901093003 | 54 | 90 | 0.0 | 0.9 | 0.00 | 0.00 | 0.00 | 50 | 1017.2 |
| 20260901092503 | 55 | 90 | 0.0 | 0.9 | 0.00 | 0.00 | 0.00 | 49 | 1017.2 |
| 20260901092002 | 55 | 0 | 0.0 | 0.0 | 0.00 | 0.00 | 0.00 | 49 | 1017.3 |
| 20260901091503 | 55 | 0 | 0.0 | 0.0 | 0.00 | 0.00 | 0.00 | 49 | 1017.3 |
| 20260901091002 | 55 | 0 | 0.0 | 0.0 | 0.00 | 0.00 | 0.00 | 49 | 1017.2 |
| 20260901090502 | 55 | 0 | 0.0 | 0.0 | 0.00 | 0.00 | 0.00 | 49 | 1017.3 |
| 20260901090003 | 56 | 0 | 0.0 | 0.0 | 0.00 | 0.00 | 0.00 | 48 | 1017.3 |
| 20260901085503 | 56 | 0 | 0.0 | 0.0 | 0.00 | 0.00 | 0.00 | 48 | 1017.3 |
| 20260901085002 | 56 | 0 | 0.0 | 0.0 | 0.00 | 0.00 | 0.00 | 48 | 1017.4 |
| 20260901084502 | 56 | 0 | 0.0 | 0.0 | 0.00 | 0.00 | 0.00 | 48 | 1017.4 |
| 20260901084003 | 57 | 90 | 0.0 | 0.9 | 0.00 | 0.00 | 0.00 | 47 | 1017.4 |
| 20260901083502 | 57 | 0 | 0.0 | 0.0 | 0.00 | 0.00 | 0.00 | 46 | 1017.4 |
| 20260901083003 | 57 | 0 | 0.0 | 0.0 | 0.00 | 0.00 | 0.00 | 46 | 1017.4 |
| 20260901082503 | 57 | 0 | 0.0 | 0.0 | 0.00 | 0.00 | 0.00 | 46 | 1017.5 |
| 20260901082003 | 58 | 0 | 0.0 | 0.0 | 0.00 | 0.00 | 0.00 | 45 | 1017.4 |
| 20260901075503 | 59 | 82 | 0.0 | 0.9 | 0.00 | 0.00 | 0.00 | 44 | 1017.7 |
| 20260901075003 | 59 | 77 | 0.0 | 0.9 | 0.00 | 0.00 | 0.00 | 44 | 1017.7 |
| 20260901074503 | 59 | 51 | 0.0 | 0.9 | 0.00 | 0.00 | 0.00 | 43 | 1017.6 |
| 20260901073502 | 60 | 0 | 0.0 | 0.0 | 0.00 | 0.00 | 0.00 | 44 | 1017.6 |
| 20260901073003 | 60 | 50 | 0.0 | 0.9 | 0.00 | 0.00 | 0.00 | 44 | 1017.5 |
| 20260901072503 | 60 | 50 | 0.0 | 0.9 | 0.00 | 0.00 | 0.00 | 43 | 1017.5 |
| 20260901072003 | 60 | 0 | 0.0 | 0.0 | 0.00 | 0.00 | 0.00 | 43 | 1017.5 |
| 20260901071503 | 61 | 0 | 0.0 | 0.0 | 0.00 | 0.00 | 0.00 | 43 | 1017.5 |
| 20260901071003 | 61 | 0 | 0.0 | 0.0 | 0.00 | 0.00 | 0.00 | 42 | 1017.5 |
| 20260901070502 | 61 | 0 | 0.0 | 0.0 | 0.00 | 0.00 | 0.00 | 42 | 1017.5 |
| 20260901065503 | 62 | 0 | 0.0 | 0.0 | 0.00 | 0.00 | 0.00 | 41 | 1017.4 |
| 20260901065003 | 62 | 0 | 0.0 | 0.0 | 0.00 | 0.00 | 0.00 | 41 | 1017.4 |
| 20260901064503 | 63 | 0 | 0.0 | 0.0 | 0.00 | 0.00 | 0.00 | 40 | 1017.4 |
| 20260901064003 | 63 | 49 | 0.0 | 1.7 | 0.00 | 0.00 | 0.00 | 39 | 1017.4 |
| 20260901063503 | 64 | 49 | 0.0 | 0.9 | 0.00 | 0.00 | 0.00 | 39 | 1017.4 |
| 20260901063003 | 64 | 0 | 0.0 | 0.0 | 0.00 | 0.00 | 0.00 | 38 | 1017.4 |
| 20260901062503 | 64 | 0 | 0.0 | 0.0 | 0.00 | 0.00 | 0.00 | 38 | 1017.4 |
| 20260901062002 | 65 | 59 | 0.0 | 0.9 | 0.00 | 0.00 | 0.00 | 37 | 1017.3 |
| 20260901061503 | 65 | 0 | 0.0 | 0.0 | 0.00 | 0.00 | 0.00 | 36 | 1017.4 |
| 20260901061003 | 65 | 134 | 0.9 | 0.9 | 0.00 | 0.00 | 0.00 | 36 | 1017.2 |
| 20260901060503 | 65 | 126 | 0.9 | 2.6 | 0.00 | 0.00 | 0.00 | 36 | 1017.2 |
| 20260901060003 | 65 | 124 | 0.9 | 2.6 | 0.00 | 0.00 | 0.00 | 37 | 1017.3 |
| 20260901055503 | 65 | 129 | 0.0 | 2.6 | 0.00 | 0.00 | 0.00 | 37 | 1017.3 |
| 20260901055003 | 65 | 119 | 0.9 | 1.7 | 0.00 | 0.00 | 0.00 | 38 | 1017.3 |
| 20260901053503 | 65 | 75 | 0.9 | 1.7 | 0.00 | 0.00 | 0.00 | 38 | 1017.3 |
| 20260901052503 | 65 | 150 | 1.7 | 3.5 | 0.00 | 0.00 | 0.00 | 38 | 1017.4 |
| 20260901052004 | 65 | 144 | 1.7 | 3.5 | 0.00 | 0.00 | 0.00 | 39 | 1017.4 |
| 20260901051503 | 64 | 143 | 0.9 | 4.3 | 0.00 | 0.00 | 0.00 | 39 | 1017.4 |
| 20260901051002 | 64 | 132 | 0.0 | 2.6 | 0.00 | 0.00 | 0.00 | 38 | 1017.6 |
| 20260901045503 | 65 | 66 | 0.0 | 0.9 | 0.00 | 0.00 | 0.00 | 38 | 1017.4 |
| 20260901045002 | 65 | 61 | 0.0 | 2.6 | 0.00 | 0.00 | 0.00 | 37 | 1017.4 |
| 20260901044506 | 66 | 0 | 0.0 | 0.0 | 0.00 | 0.00 | 0.00 | 37 | 1017.3 |
| 20260901043503 | 67 | 0 | 0.0 | 0.0 | 0.00 | 0.00 | 0.00 | 36 | 1017.3 |
| 20260901042503 | 67 | 55 | 0.9 | 0.9 | 0.00 | 0.00 | 0.00 | 35 | 1017.0 |
| 20260901041503 | 68 | 0 | 0.0 | 0.0 | 0.00 | 0.00 | 0.00 | 35 | 1016.9 |
| 20260901040503 | 69 | 58 | 0.9 | 1.7 | 0.00 | 0.00 | 0.00 | 34 | 1016.9 |
| 20260901040003 | 69 | 69 | 1.7 | 1.7 | 0.00 | 0.00 | 0.00 | 33 | 1016.8 |
| 20260901035503 | 70 | 73 | 0.9 | 2.6 | 0.00 | 0.00 | 0.00 | 33 | 1016.6 |
| 20260901035003 | 70 | 73 | 0.0 | 2.6 | 0.00 | 0.00 | 0.00 | 32 | 1016.5 |
| 20260901034503 | 70 | 0 | 0.0 | 0.0 | 0.00 | 0.00 | 0.00 | 32 | 1016.5 |
| 20260901034003 | 70 | 0 | 0.0 | 0.0 | 0.00 | 0.00 | 0.00 | 32 | 1016.5 |
| 20260901033503 | 71 | 0 | 0.0 | 0.0 | 0.00 | 0.00 | 0.00 | 31 | 1016.4 |
| 20260901033003 | 71 | 171 | 0.0 | 1.7 | 0.00 | 0.00 | 0.00 | 31 | 1016.3 |
| 20260901032504 | 71 | 0 | 0.0 | 0.0 | 0.00 | 0.00 | 0.00 | 31 | 1016.2 |
| 20260901031503 | 72 | 103 | 0.0 | 1.7 | 0.00 | 0.00 | 0.00 | 30 | 1016.1 |
| 20260901031003 | 72 | 0 | 0.0 | 0.0 | 0.00 | 0.00 | 0.00 | 30 | 1016.0 |
| 20260901030503 | 72 | 26 | 0.0 | 0.9 | 0.00 | 0.00 | 0.00 | 29 | 1016.0 |
| 20260901030003 | 72 | 0 | 0.9 | 0.0 | 0.00 | 0.00 | 0.00 | 28 | 1015.9 |
| 20260901025503 | 73 | 35 | 0.9 | 2.6 | 0.00 | 0.00 | 0.00 | 28 | 1016.0 |
| 20260901025004 | 73 | 74 | 0.0 | 2.6 | 0.00 | 0.00 | 0.00 | 27 | 1016.0 |
| 20260901024503 | 74 | 178 | 0.0 | 0.9 | 0.00 | 0.00 | 0.00 | 27 | 1015.9 |
| 20260901024003 | 74 | 178 | 0.9 | 2.6 | 0.00 | 0.00 | 0.00 | 27 | 1015.8 |
| 20260901023503 | 74 | 174 | 1.7 | 1.7 | 0.00 | 0.00 | 0.00 | 26 | 1015.7 |
| 20260901023003 | 74 | 169 | 1.7 | 4.3 | 0.00 | 0.00 | 0.00 | 26 | 1015.7 |
| 20260901022503 | 75 | 184 | 1.7 | 8.7 | 0.00 | 0.00 | 0.00 | 26 | 1015.7 |
| 20260901022003 | 75 | 187 | 3.5 | 6.1 | 0.00 | 0.00 | 0.00 | 25 | 1015.7 |
| 20260901021503 | 75 | 186 | 4.3 | 6.1 | 0.00 | 0.00 | 0.00 | 25 | 1015.6 |
| 20260901021003 | 76 | 187 | 3.5 | 8.7 | 0.00 | 0.00 | 0.00 | 25 | 1015.6 |
| 20260901020504 | 76 | 178 | 2.6 | 8.7 | 0.00 | 0.00 | 0.00 | 24 | 1015.6 |
| 20260901020003 | 77 | 170 | 1.7 | 5.2 | 0.00 | 0.00 | 0.00 | 24 | 1015.5 |
| 20260901015503 | 78 | 175 | 2.6 | 4.3 | 0.00 | 0.00 | 0.00 | 24 | 1015.5 |
| 20260901015004 | 78 | 162 | 2.6 | 6.1 | 0.00 | 0.00 | 0.00 | 23 | 1015.5 |
| 20260901014503 | 79 | 151 | 0.9 | 8.7 | 0.00 | 0.00 | 0.00 | 23 | 1015.5 |
| 20260901014004 | 79 | 248 | 1.7 | 0.9 | 0.00 | 0.00 | 0.00 | 22 | 1015.5 |
| 20260901013503 | 79 | 230 | 2.6 | 3.5 | 0.00 | 0.00 | 0.00 | 22 | 1015.5 |
| 20260901013003 | 79 | 253 | 1.7 | 3.5 | 0.00 | 0.00 | 0.00 | 22 | 1015.5 |
| 20260901012503 | 79 | 226 | 2.6 | 4.3 | 0.00 | 0.00 | 0.00 | 22 | 1015.4 |
| 20260901012003 | 79 | 192 | 4.3 | 5.2 | 0.00 | 0.00 | 0.00 | 22 | 1015.4 |
| 20260901010503 | 79 | 233 | 7.0 | 12.2 | 0.00 | 0.00 | 0.00 | 21 | 1015.3 |
| 20260901010004 | 80 | 230 | 7.0 | 13.0 | 0.00 | 0.00 | 0.00 | 21 | 1015.3 |
| 20260901005503 | 80 | 220 | 7.0 | 12.2 | 0.00 | 0.00 | 0.00 | 21 | 1015.3 |
| 20260901005003 | 80 | 231 | 7.0 | 13.9 | 0.00 | 0.00 | 0.00 | 20 | 1015.3 |
| 20260901004503 | 80 | 233 | 7.8 | 10.4 | 0.00 | 0.00 | 0.00 | 20 | 1015.3 |
| 20260901004004 | 80 | 241 | 7.8 | 12.2 | 0.00 | 0.00 | 0.00 | 21 | 1015.4 |
| 20260901003503 | 80 | 238 | 7.8 | 13.0 | 0.00 | 0.00 | 0.00 | 20 | 1015.4 |
| 20260901003003 | 80 | 239 | 7.8 | 13.9 | 0.00 | 0.00 | 0.00 | 20 | 1015.4 |
| 20260901001503 | 80 | 226 | 7.8 | 16.5 | 0.00 | 0.00 | 0.00 | 20 | 1015.6 |
| 20260901001003 | 81 | 232 | 7.0 | 11.3 | 0.00 | 0.00 | 0.00 | 20 | 1015.5 |
| 20260901000503 | 81 | 235 | 7.8 | 15.6 | 0.00 | 0.00 | 0.00 | 20 | 1015.5 |
| 20260831235503 | 81 | 240 | 7.8 | 18.2 | 0.00 | 0.00 | 0.00 | 20 | 1015.4 |
| 20260831235004 | 81 | 235 | 8.7 | 13.0 | 0.00 | 0.00 | 0.00 | 20 | 1015.4 |
| 20260831233503 | 81 | 242 | 8.7 | 15.6 | 0.00 | 0.00 | 0.00 | 20 | 1015.4 |
| 20260831233004 | 81 | 240 | 7.8 | 14.8 | 0.00 | 0.00 | 0.00 | 20 | 1015.5 |
| 20260831232503 | 82 | 235 | 7.0 | 15.6 | 0.00 | 0.00 | 0.00 | 20 | 1015.6 |
| 20260831232003 | 82 | 240 | 7.8 | 11.3 | 0.00 | 0.00 | 0.00 | 20 | 1015.6 |
| 20260831231004 | 81 | 234 | 8.7 | 12.2 | 0.00 | 0.00 | 0.00 | 20 | 1015.6 |
| 20260831230503 | 82 | 237 | 8.7 | 14.8 | 0.00 | 0.00 | 0.00 | 20 | 1015.6 |
| 20260831230004 | 82 | 233 | 7.8 | 15.6 | 0.00 | 0.00 | 0.00 | 20 | 1015.7 |
| 20260831225503 | 82 | 213 | 7.8 | 10.4 | 0.00 | 0.00 | 0.00 | 20 | 1015.7 |
| 20260831225003 | 81 | 221 | 8.7 | 12.2 | 0.00 | 0.00 | 0.00 | 20 | 1015.7 |
| 20260831224003 | 82 | 229 | 9.6 | 14.8 | 0.00 | 0.00 | 0.00 | 20 | 1015.8 |
| 20260831223503 | 82 | 233 | 7.8 | 13.9 | 0.00 | 0.00 | 0.00 | 20 | 1015.8 |
| 20260831222503 | 82 | 235 | 8.7 | 15.6 | 0.00 | 0.00 | 0.00 | 20 | 1015.9 |
| 20260831222003 | 82 | 241 | 8.7 | 13.9 | 0.00 | 0.00 | 0.00 | 20 | 1016.0 |
| 20260831221004 | 81 | 236 | 9.6 | 17.4 | 0.00 | 0.00 | 0.00 | 20 | 1016.0 |
| 20260831220503 | 81 | 236 | 9.6 | 14.8 | 0.00 | 0.00 | 0.00 | 20 | 1016.2 |
| 20260831215504 | 81 | 240 | 9.6 | 15.6 | 0.00 | 0.00 | 0.00 | 19 | 1016.2 |
| 20260831215003 | 82 | 242 | 8.7 | 15.6 | 0.00 | 0.00 | 0.00 | 19 | 1016.2 |
| 20260831214504 | 81 | 241 | 7.8 | 12.2 | 0.00 | 0.00 | 0.00 | 20 | 1016.3 |
| 20260831214003 | 81 | 232 | 10.4 | 13.9 | 0.00 | 0.00 | 0.00 | 20 | 1016.3 |
| 20260831213504 | 80 | 237 | 11.3 | 14.8 | 0.00 | 0.00 | 0.00 | 19 | 1016.3 |
| 20260831213003 | 80 | 235 | 11.3 | 16.5 | 0.00 | 0.00 | 0.00 | 19 | 1016.3 |
| 20260831212502 | 81 | 237 | 11.3 | 17.4 | 0.00 | 0.00 | 0.00 | 19 | 1016.4 |
| 20260831212002 | 80 | 237 | 12.2 | 17.4 | 0.00 | 0.00 | 0.00 | 18 | 1016.5 |
| 20260831211002 | 81 | 225 | 11.3 | 16.5 | 0.00 | 0.00 | 0.00 | 18 | 1016.5 |
| 20260831210502 | 80 | 224 | 11.3 | 14.8 | 0.00 | 0.00 | 0.00 | 18 | 1016.6 |
| 20260831210002 | 81 | 236 | 10.4 | 20.0 | 0.00 | 0.00 | 0.00 | 17 | 1016.6 |
| 20260831205502 | 81 | 238 | 9.6 | 18.2 | 0.00 | 0.00 | 0.00 | 17 | 1016.6 |
| 20260831204502 | 81 | 237 | 9.6 | 15.6 | 0.00 | 0.00 | 0.00 | 17 | 1016.6 |
| 20260831204002 | 81 | 233 | 9.6 | 13.9 | 0.00 | 0.00 | 0.00 | 16 | 1016.5 |
| 20260831203502 | 81 | 239 | 10.4 | 14.8 | 0.00 | 0.00 | 0.00 | 17 | 1016.6 |
| 20260831203002 | 81 | 233 | 9.6 | 16.5 | 0.00 | 0.00 | 0.00 | 17 | 1016.5 |
| 20260831202502 | 81 | 240 | 9.6 | 16.5 | 0.00 | 0.00 | 0.00 | 17 | 1016.6 |
| 20260831202002 | 81 | 233 | 10.4 | 18.2 | 0.00 | 0.00 | 0.00 | 18 | 1016.6 |
| 20260831201503 | 80 | 237 | 9.6 | 16.5 | 0.00 | 0.00 | 0.00 | 18 | 1016.7 |
| 20260831201002 | 81 | 237 | 9.6 | 14.8 | 0.00 | 0.00 | 0.00 | 18 | 1016.7 |
| 20260831200503 | 80 | 229 | 9.6 | 13.0 | 0.00 | 0.00 | 0.00 | 19 | 1016.6 |
| 20260831200003 | 80 | 240 | 9.6 | 13.9 | 0.00 | 0.00 | 0.00 | 20 | 1016.7 |
| 20260831195002 | 80 | 235 | 8.7 | 16.5 | 0.00 | 0.00 | 0.00 | 21 | 1016.8 |
| 20260831194502 | 80 | 231 | 9.6 | 13.0 | 0.00 | 0.00 | 0.00 | 22 | 1016.8 |
| 20260831194002 | 80 | 233 | 9.6 | 14.8 | 0.00 | 0.00 | 0.00 | 22 | 1016.8 |
| 20260831193502 | 80 | 234 | 9.6 | 16.5 | 0.00 | 0.00 | 0.00 | 22 | 1016.8 |
| 20260831193003 | 80 | 235 | 8.7 | 11.3 | 0.00 | 0.00 | 0.00 | 22 | 1016.9 |
| 20260831192502 | 80 | 237 | 8.7 | 14.8 | 0.00 | 0.00 | 0.00 | 22 | 1016.9 |
| 20260831192002 | 80 | 238 | 7.8 | 14.8 | 0.00 | 0.00 | 0.00 | 23 | 1017.0 |
| 20260831191503 | 80 | 231 | 7.8 | 12.2 | 0.00 | 0.00 | 0.00 | 23 | 1017.1 |
| 20260831191002 | 79 | 236 | 7.8 | 13.0 | 0.00 | 0.00 | 0.00 | 23 | 1017.1 |